TimeMST,TemperatureF,Dew PointF,Humidity,Sea Level PressureIn,VisibilityMPH,Wind Direction,Wind SpeedMPH,Gust SpeedMPH,PrecipitationIn,Events,Conditions,WindDirDegrees,DateUTC
12:53 AM,44.1,28.9,55,29.70,10.0,SSW,3.5,-,N/A,,Partly Cloudy,200,2012-12-02 07:53:00
1:53 AM,45.0,28.9,53,29.68,10.0,Calm,Calm,-,N/A,,Partly Cloudy,0,2012-12-02 08:53:00
2:53 AM,43.0,28.0,56,29.66,10.0,South,4.6,-,N/A,,Partly Cloudy,170,2012-12-02 09:53:00
3:53 AM,43.0,28.0,56,29.62,10.0,SE,6.9,-,N/A,,Clear,140,2012-12-02 10:53:00
4:53 AM,46.0,27.0,47,29.59,10.0,SSE,4.6,-,N/A,,Clear,160,2012-12-02 11:53:00
5:53 AM,48.0,27.0,44,29.55,10.0,SSW,6.9,-,N/A,,Clear,200,2012-12-02 12:53:00
6:53 AM,48.9,26.1,41,29.49,10.0,SSE,5.8,-,N/A,,Clear,150,2012-12-02 13:53:00
7:53 AM,48.9,27.0,43,29.45,10.0,East,3.5,-,N/A,,Clear,100,2012-12-02 14:53:00
8:53 AM,46.0,28.0,50,29.45,10.0,Calm,Calm,-,N/A,,Clear,0,2012-12-02 15:53:00
9:53 AM,48.0,28.0,46,29.42,10.0,NNW,4.6,-,N/A,,Clear,340,2012-12-02 16:53:00
10:53 AM,48.0,33.1,56,29.38,10.0,NNW,5.8,-,N/A,,Clear,330,2012-12-02 17:53:00
11:53 AM,54.0,30.0,40,29.36,10.0,NE,3.5,-,N/A,,Clear,50,2012-12-02 18:53:00
12:53 PM,55.0,30.9,40,29.32,10.0,WNW,3.5,-,N/A,,Clear,290,2012-12-02 19:53:00
1:53 PM,59.0,30.9,35,29.27,10.0,SSW,8.1,-,N/A,,Clear,200,2012-12-02 20:53:00
2:30 PM,57.2,30.2,36,29.29,10.0,SSW,8.1,-,N/A,,Clear,210,2012-12-02 21:30:00
2:53 PM,59.0,30.9,35,29.25,10.0,SSW,10.4,-,N/A,,Partly Cloudy,210,2012-12-02 21:53:00
3:53 PM,57.0,30.9,37,29.26,10.0,West,11.5,-,N/A,,Scattered Clouds,260,2012-12-02 22:53:00
4:53 PM,57.2,30.2,36,29.28,10.0,West,9.2,-,N/A,,Scattered Clouds,260,2012-12-02 23:53:00
5:53 PM,57.9,32.0,37,29.25,10.0,SW,11.5,18.4,N/A,,Partly Cloudy,220,2012-12-03 00:53:00
6:53 PM,57.9,34.0,41,29.29,10.0,West,24.2,-,N/A,,Partly Cloudy,270,2012-12-03 01:53:00
7:53 PM,46.9,34.0,61,29.41,10.0,NW,38.0,46.0,N/A,,Mostly Cloudy,310,2012-12-03 02:53:00
8:53 PM,39.9,34.0,79,29.56,9.0,NW,32.2,50.6,0.00,Rain,Light Rain,310,2012-12-03 03:53:00
9:53 PM,43.0,32.0,65,29.61,10.0,WSW,12.7,-,0.00,,Overcast,250,2012-12-03 04:53:00
10:53 PM,43.0,30.9,62,29.66,10.0,West,16.1,24.2,N/A,,Mostly Cloudy,260,2012-12-03 05:53:00
11:53 PM,41.0,27.0,57,29.70,10.0,West,12.7,-,N/A,,Clear,270,2012-12-03 06:53:00